Lyndonville, VT

11:36 PM EDT on June 22, 2017 (GMT -0400)
Lyndonville

Weather History for KCDA - September, 2013

Change the Weather History Date:

Sunday, September 22, 2013

  Actual Average (K1V4) Record (K1V4)
Temperature  
Mean Temperature 55 °F -  
Max Temperature 63 °F 64 °F 90 °F (1957)
Min Temperature 45 °F 44 °F 27 °F (1904)
Degree Days  
Heating Degree Days 10    
Growing Degree Days 5 (Base 50)    
Moisture  
Dew Point 49 °F    
Average Humidity 79    
Maximum Humidity 91    
Minimum Humidity 64    
Precipitation  
Precipitation 0.00 in - - ()
Sea Level Pressure  
Sea Level Pressure 29.71 in    
Wind  
Wind Speed 8 mph (West)    
Max Wind Speed 20 mph    
Max Gust Speed 26 mph    
Visibility 9 miles    
Events Rain    
Averages and records for this station are not official NWS values.
T = Trace of Precipitation, MM = Missing Value Source: NWS Daily Summary

Daily Weather History Graph

Daily Weather History Graph

Search for Another Location

Airport or City:

Trip Planner

Search our weather history database for the weather conditions in past years. The results will help you decide how hot, cold, wet, or windy it might be!

Date:

Astronomy

Sep. 22, 2013 Rise Set
Actual Time 6:35 AM EDT 6:45 PM EDT
Civil Twilight 6:06 AM EDT 7:14 PM EDT
Nautical Twilight 5:32 AM EDT 7:48 PM EDT
Astronomical Twilight 4:57 AM EDT 8:23 PM EDT
Moon 8:23 PM EDT (9/22) 10:02 AM EDT (9/22)
Length of Visible Light 13h 07m
Length of Day
12h 09m
Waning Gibbous, 89% of the Moon is Illuminated
Sep 22
Waning Gibbous
Sep 26
Last Quarter
Oct 4
New
Oct 11
First Quarter
Oct 18
Full

Hourly Weather History & Observations

Time (EDT) Temp. Windchill Dew Point Humidity Pressure Visibility Wind Dir Wind Speed Gust Speed Precip Events Conditions
12:15 AM 64.4 °F - 57.2 °F 77% 29.64 in 10.0 mi South 12.7 mph 20.7 mph N/A Rain Light Rain
12:35 AM 63.5 °F - 58.1 °F 83% 29.64 in 10.0 mi South 10.4 mph 16.1 mph N/A Rain Rain
12:55 AM 63.3 °F - 59.0 °F 86% 29.63 in 10.0 mi South 11.5 mph 18.4 mph N/A   Drizzle
1:15 AM 62.6 °F - 58.6 °F 87% 29.62 in 7.0 mi SSE 12.7 mph - N/A Rain Light Rain
1:35 AM 62.4 °F - 59.0 °F 89% 29.61 in 7.0 mi South 9.2 mph - N/A Rain Light Rain
1:55 AM 62.1 °F - 59.0 °F 90% 29.61 in 7.0 mi South 8.1 mph - N/A Rain Light Rain
2:15 AM 62.2 °F - 59.0 °F 89% 29.60 in 7.0 mi South 8.1 mph - N/A Rain Rain
2:35 AM 62.6 °F - 59.2 °F 89% 29.58 in 5.0 mi South 6.9 mph - N/A Rain Rain
2:55 AM 62.6 °F - 59.2 °F 89% 29.57 in 7.0 mi SSE 5.8 mph - N/A Rain Rain
3:35 AM 59.5 °F - 56.5 °F 90% 29.58 in 3.0 mi Calm Calm - N/A Rain Heavy Rain
3:55 AM 59.4 °F - 56.3 °F 90% 29.60 in 7.0 mi Calm Calm - N/A Rain Rain
4:15 AM 59.0 °F - 56.3 °F 91% 29.61 in 5.0 mi Calm Calm - N/A Rain Rain
4:35 AM 59.4 °F - 56.3 °F 90% 29.60 in 5.0 mi Calm Calm - N/A Rain Rain
4:55 AM 59.4 °F - 56.7 °F 91% 29.61 in 5.0 mi Calm Calm - N/A Rain Light Rain
5:15 AM 59.2 °F - 56.5 °F 91% 29.61 in 1.2 mi Calm Calm - N/A   Light Drizzle
5:35 AM 58.8 °F - 56.1 °F 91% 29.61 in 1.8 mi South 3.5 mph - N/A Rain Light Rain
5:55 AM 58.5 °F - 55.8 °F 91% 29.62 in 10.0 mi Calm Calm - N/A Rain Rain
6:15 AM 58.3 °F - 55.6 °F 91% 29.63 in 10.0 mi Calm Calm - N/A   Overcast
6:35 AM 58.1 °F - 55.4 °F 91% 29.63 in 10.0 mi Calm Calm - N/A   Overcast
6:55 AM 58.1 °F - 55.0 °F 90% 29.63 in 10.0 mi Calm Calm - N/A   Overcast
7:15 AM 58.1 °F - 54.9 °F 89% 29.62 in 10.0 mi Calm Calm - N/A   Overcast
7:35 AM 58.1 °F - 55.4 °F 91% 29.62 in 10.0 mi Calm Calm - N/A   Overcast
7:55 AM 58.3 °F - 55.6 °F 91% 29.64 in 5.0 mi WNW 3.5 mph - N/A   Overcast
8:15 AM 56.3 °F - 52.9 °F 88% 29.64 in 5.0 mi West 5.8 mph - N/A   Light Drizzle
8:35 AM 56.5 °F - 53.1 °F 88% 29.65 in 10.0 mi Calm Calm - N/A   Overcast
8:55 AM 57.6 °F - 53.4 °F 86% 29.65 in 10.0 mi Calm Calm - N/A   Overcast
9:15 AM 58.8 °F - 53.2 °F 82% 29.65 in 10.0 mi Calm Calm - N/A   Overcast
9:35 AM 58.3 °F - 53.1 °F 83% 29.66 in 10.0 mi NW 10.4 mph - N/A   Overcast
9:55 AM 55.2 °F - 50.5 °F 84% 29.66 in 10.0 mi West 13.8 mph 18.4 mph N/A Rain Light Rain
10:15 AM 55.6 °F - 50.4 °F 83% 29.66 in 10.0 mi West 15.0 mph 20.7 mph N/A   Overcast
10:35 AM 57.4 °F - 50.4 °F 77% 29.67 in 10.0 mi West 11.5 mph 20.7 mph N/A   Overcast
10:55 AM 58.3 °F - 50.9 °F 76% 29.67 in 10.0 mi West 10.4 mph 18.4 mph N/A   Overcast
11:15 AM 58.5 °F - 49.8 °F 73% 29.68 in 10.0 mi West 13.8 mph 23.0 mph N/A   Mostly Cloudy
11:35 AM 59.2 °F - 49.3 °F 70% 29.68 in 10.0 mi West 12.7 mph 20.7 mph N/A   Mostly Cloudy
11:55 AM 58.1 °F - 48.7 °F 71% 29.68 in 10.0 mi West 17.3 mph 24.2 mph N/A   Scattered Clouds
12:15 PM 58.5 °F - 49.8 °F 73% 29.68 in 10.0 mi West 13.8 mph 26.5 mph N/A   Mostly Cloudy
12:35 PM 58.1 °F - 47.7 °F 68% 29.68 in 10.0 mi West 19.6 mph 26.5 mph N/A   Mostly Cloudy
12:55 PM 60.3 °F - 48.6 °F 65% 29.69 in 10.0 mi West 16.1 mph 24.2 mph N/A   Mostly Cloudy
1:15 PM 58.1 °F - 47.3 °F 67% 29.70 in 10.0 mi West 12.7 mph 21.9 mph N/A   Overcast
1:35 PM 57.2 °F - 46.4 °F 67% 29.71 in 10.0 mi West 12.7 mph 23.0 mph N/A   Overcast
1:55 PM 56.8 °F - 46.2 °F 68% 29.71 in 10.0 mi West 15.0 mph 19.6 mph N/A   Overcast
2:15 PM 56.3 °F - 45.9 °F 68% 29.72 in 10.0 mi West 13.8 mph 23.0 mph N/A   Overcast
2:35 PM 54.7 °F - 45.1 °F 70% 29.72 in 10.0 mi West 11.5 mph 19.6 mph N/A   Overcast
2:55 PM 55.0 °F - 45.0 °F 69% 29.73 in 10.0 mi NW 13.8 mph 18.4 mph N/A   Overcast
3:15 PM 54.5 °F - 44.2 °F 68% 29.74 in 10.0 mi WNW 10.4 mph 16.1 mph N/A   Overcast
3:35 PM 54.5 °F - 43.9 °F 67% 29.74 in 10.0 mi WNW 13.8 mph 17.3 mph N/A   Overcast
3:55 PM 54.5 °F - 43.7 °F 67% 29.74 in 10.0 mi NW 15.0 mph - N/A   Overcast
4:15 PM 54.5 °F - 42.6 °F 64% 29.75 in 10.0 mi WNW 13.8 mph 25.3 mph N/A   Overcast
4:35 PM 53.4 °F - 41.9 °F 65% 29.75 in 10.0 mi WNW 9.2 mph 18.4 mph N/A   Overcast
4:55 PM 53.6 °F - 42.8 °F 67% 29.76 in 10.0 mi West 11.5 mph 17.3 mph N/A   Overcast
5:15 PM 52.7 °F - 41.7 °F 66% 29.76 in 10.0 mi WNW 12.7 mph 23.0 mph N/A   Overcast
5:35 PM 53.4 °F - 41.4 °F 64% 29.77 in 10.0 mi West 11.5 mph - N/A   Overcast
5:55 PM 52.7 °F - 41.4 °F 65% 29.78 in 10.0 mi WNW 10.4 mph 18.4 mph N/A   Overcast
6:15 PM 51.8 °F - 41.9 °F 69% 29.79 in 10.0 mi West 11.5 mph - N/A   Mostly Cloudy
6:35 PM 50.2 °F - 42.3 °F 74% 29.79 in 10.0 mi WNW 11.5 mph - N/A   Overcast
6:55 PM 49.8 °F - 42.1 °F 75% 29.80 in 10.0 mi West 6.9 mph 10.4 mph N/A   Overcast
7:15 PM 49.1 °F - 41.2 °F 74% 29.81 in 10.0 mi WNW 10.4 mph 16.1 mph N/A   Mostly Cloudy
7:35 PM 49.1 °F - 41.2 °F 74% 29.82 in 10.0 mi West 5.8 mph - N/A   Overcast
7:55 PM 48.4 °F - 41.4 °F 77% 29.82 in 10.0 mi West 5.8 mph - N/A   Overcast
8:15 PM 48.4 °F - 41.5 °F 77% 29.83 in 10.0 mi West 3.5 mph - N/A   Overcast
8:35 PM 48.4 °F - 41.9 °F 78% 29.84 in 10.0 mi West 5.8 mph - N/A   Overcast
8:55 PM 48.2 °F - 41.9 °F 79% 29.84 in 10.0 mi WNW 6.9 mph - N/A   Overcast
9:15 PM 48.7 °F - 40.8 °F 74% 29.84 in 10.0 mi NW 3.5 mph - N/A   Overcast
9:35 PM 48.4 °F - 40.5 °F 74% 29.84 in 10.0 mi WNW 5.8 mph - N/A   Overcast
9:55 PM 47.8 °F - 41.0 °F 77% 29.85 in 7.0 mi WNW 6.9 mph - N/A Rain Rain
10:15 PM 47.5 °F - 41.5 °F 80% 29.85 in 10.0 mi NW 10.4 mph - N/A   Overcast
10:35 PM 47.3 °F - 41.0 °F 79% 29.85 in 10.0 mi WNW 5.8 mph - N/A   Overcast
10:55 PM 46.6 °F - 39.7 °F 77% 29.85 in 10.0 mi WNW 8.1 mph 17.3 mph N/A   Mostly Cloudy
11:15 PM 46.9 °F - 39.9 °F 77% 29.85 in 10.0 mi WNW 9.2 mph 17.3 mph N/A   Overcast
11:35 PM 46.6 °F - 39.7 °F 77% 29.86 in 10.0 mi WNW 9.2 mph 16.1 mph N/A   Drizzle
11:55 PM 45.7 °F 42.0 °F 40.5 °F 82% 29.86 in 10.0 mi WNW 6.9 mph - N/A   Drizzle